Location: Luxembourg
(49.6117°N, 6.1300°E)
Time: 22:43:10
(UTC+01:00)

BEESAT 2 - Visible Passes

Search period start: 18 March 2019 00:00
Search period end: 28 March 2019 00:00
Orbit: 508 x 523 km, 64.9° (Epoch: 18 March)

Date Brightness Start Highest point End Pass type
(mag) Time Alt. Az. Time Alt. Az. Time Alt. Az.
18 Mar ? 20:45:08 10° NNW 20:49:03 57° NE 20:49:18 56° ENE visible
18 Mar ? 22:23:30 10° WNW 22:24:18 14° WNW 22:24:18 14° WNW visible
19 Mar ? 20:29:23 10° NW 20:33:19 58° NE 20:34:17 43° E visible
19 Mar ? 22:07:46 10° WNW 22:09:18 16° W 22:09:18 16° W visible
20 Mar ? 20:13:38 10° NW 20:17:35 59° NE 20:19:20 30° ESE visible
20 Mar ? 21:52:03 10° WNW 21:54:21 18° WSW 21:54:21 18° WSW visible
21 Mar ? 19:57:53 10° NW 20:01:50 60° NE 20:04:28 20° ESE visible
21 Mar ? 21:36:20 10° WNW 21:39:05 18° WSW 21:39:28 18° WSW visible
22 Mar ? 19:42:08 10° NW 19:46:05 61° NE 19:49:40 12° SE visible
22 Mar ? 21:20:37 10° WNW 21:23:20 18° WSW 21:24:41 15° SW visible
23 Mar ? 19:26:24 10° NW 19:30:20 63° NE 19:34:16 10° SE visible
23 Mar ? 21:04:53 10° WNW 21:07:34 18° WSW 21:09:59 11° SSW visible
24 Mar ? 20:49:11 10° WNW 20:51:49 17° WSW 20:54:26 10° SSW visible
25 Mar ? 20:33:27 10° WNW 20:36:03 17° WSW 20:38:38 10° SSW visible
26 Mar ? 20:17:44 10° WNW 20:20:17 17° WSW 20:22:50 10° SSW visible
27 Mar ? 20:02:00 10° WNW 20:04:31 16° WSW 20:07:01 10° SSW visible
